Time,TemperatureF,DewpointF,PressureIn,WindDirection,WindDirectionDegrees,WindSpeedMPH,WindSpeedGustMPH,Humidity,HourlyPrecipIn,Conditions,Clouds,dailyrainin,SoftwareType,DateUTC
2013-01-24 00:02:00,16.0,7.0,30.36,NW,316,4.0,11.0,68,0.00,,,0.00,,2013-01-24 06:02:00,
2013-01-24 00:12:00,16.0,7.0,30.36,NW,316,4.0,11.0,68,0.00,,,0.00,,2013-01-24 06:12:00,
2013-01-24 00:22:00,16.0,8.0,30.37,North,355,5.0,11.0,69,0.00,,,0.00,,2013-01-24 06:22:00,
2013-01-24 00:32:00,15.0,5.0,30.39,North,355,8.0,20.0,65,0.00,,,0.00,,2013-01-24 06:32:00,
2013-01-24 00:42:00,15.0,5.0,30.39,North,355,8.0,20.0,65,0.00,,,0.00,,2013-01-24 06:42:00,
2013-01-24 00:52:00,14.0,3.0,30.40,NNW,348,8.0,16.0,62,0.00,,,0.00,,2013-01-24 06:52:00,
2013-01-24 01:02:00,14.0,3.0,30.42,North,11,8.0,18.0,60,0.00,,,0.00,,2013-01-24 07:02:00,
2013-01-24 01:12:00,14.0,3.0,30.42,North,11,8.0,18.0,60,0.00,,,0.00,,2013-01-24 07:12:00,
2013-01-24 01:23:00,13.0,1.0,30.43,North,349,7.0,15.0,59,0.00,,,0.00,,2013-01-24 07:23:00,
2013-01-24 01:33:00,12.0,1.0,30.45,NNE,22,6.0,13.0,61,0.00,,,0.00,,2013-01-24 07:33:00,
2013-01-24 01:43:00,12.0,1.0,30.45,NNE,22,6.0,13.0,61,0.00,,,0.00,,2013-01-24 07:43:00,
2013-01-24 01:52:00,12.0,2.0,30.46,North,5,5.0,11.0,63,0.00,,,0.00,,2013-01-24 07:52:00,
2013-01-24 02:02:00,11.0,2.0,30.46,North,5,6.0,12.0,65,0.00,,,0.00,,2013-01-24 08:02:00,
2013-01-24 02:12:00,11.0,2.0,30.46,North,5,6.0,12.0,65,0.00,,,0.00,,2013-01-24 08:12:00,
2013-01-24 02:23:00,11.0,2.0,30.47,NE,40,4.0,11.0,65,0.00,,,0.00,,2013-01-24 08:23:00,
2013-01-24 02:33:00,11.0,2.0,30.48,NE,44,5.0,12.0,65,0.00,,,0.00,,2013-01-24 08:33:00,
2013-01-24 02:43:00,11.0,2.0,30.48,NE,44,5.0,12.0,65,0.00,,,0.00,,2013-01-24 08:43:00,
2013-01-24 02:52:00,10.0,1.0,30.49,NW,320,6.0,11.0,66,0.00,,,0.00,,2013-01-24 08:52:00,
2013-01-24 03:03:00,10.0,1.0,30.50,North,360,4.0,10.0,66,0.00,,,0.00,,2013-01-24 09:03:00,
2013-01-24 03:13:00,10.0,1.0,30.50,North,360,4.0,10.0,66,0.00,,,0.00,,2013-01-24 09:13:00,
2013-01-24 03:23:00,9.0,0.0,30.49,North,5,4.0,10.0,66,0.00,,,0.00,,2013-01-24 09:23:00,
2013-01-24 03:33:00,9.0,0.0,30.50,North,10,4.0,11.0,66,0.00,,,0.00,,2013-01-24 09:33:00,
2013-01-24 03:43:00,9.0,0.0,30.50,North,10,4.0,11.0,66,0.00,,,0.00,,2013-01-24 09:43:00,
2013-01-24 03:52:00,9.0,0.0,30.50,North,360,5.0,12.0,66,0.00,,,0.00,,2013-01-24 09:52:00,
2013-01-24 04:03:00,8.0,-2.0,30.50,NNE,23,5.0,13.0,63,0.00,,,0.00,,2013-01-24 10:03:00,
2013-01-24 04:12:00,8.0,-2.0,30.50,NNE,23,5.0,13.0,63,0.00,,,0.00,,2013-01-24 10:12:00,
2013-01-24 04:23:00,8.0,-2.0,30.52,North,360,6.0,12.0,64,0.00,,,0.00,,2013-01-24 10:23:00,
2013-01-24 04:33:00,8.0,-2.0,30.52,NNE,13,4.0,14.0,64,0.00,,,0.00,,2013-01-24 10:33:00,
2013-01-24 04:43:00,8.0,-2.0,30.52,NNE,13,4.0,14.0,64,0.00,,,0.00,,2013-01-24 10:43:00,
2013-01-24 04:52:00,8.0,-2.0,30.53,NNE,17,5.0,10.0,64,0.00,,,0.00,,2013-01-24 10:52:00,
2013-01-24 05:02:00,7.0,-3.0,30.54,NNE,13,3.0,10.0,64,0.00,,,0.00,,2013-01-24 11:02:00,
2013-01-24 05:12:00,7.0,-3.0,30.54,NNE,13,3.0,10.0,64,0.00,,,0.00,,2013-01-24 11:12:00,
2013-01-24 05:23:00,7.0,-2.0,30.55,NNW,335,2.0,7.0,66,0.00,,,0.00,,2013-01-24 11:23:00,
2013-01-24 05:33:00,7.0,-1.0,30.56,North,355,4.0,9.0,68,0.00,,,0.00,,2013-01-24 11:33:00,
2013-01-24 05:43:00,7.0,-1.0,30.56,North,355,4.0,9.0,68,0.00,,,0.00,,2013-01-24 11:43:00,
2013-01-24 05:52:00,7.0,-2.0,30.56,NNW,346,4.0,10.0,65,0.00,,,0.00,,2013-01-24 11:52:00,
2013-01-24 06:03:00,7.0,-2.0,30.57,North,360,4.0,7.0,66,0.00,,,0.00,,2013-01-24 12:03:00,
2013-01-24 06:12:00,7.0,-2.0,30.57,North,360,4.0,7.0,66,0.00,,,0.00,,2013-01-24 12:12:00,
2013-01-24 06:22:00,7.0,-2.0,30.58,North,10,3.0,7.0,67,0.00,,,0.00,,2013-01-24 12:22:00,
2013-01-24 06:33:00,6.0,-3.0,30.59,North,360,3.0,9.0,65,0.00,,,0.00,,2013-01-24 12:33:00,
2013-01-24 06:43:00,6.0,-3.0,30.59,North,360,3.0,9.0,65,0.00,,,0.00,,2013-01-24 12:43:00,
2013-01-24 06:53:00,6.0,-4.0,30.58,North,360,4.0,10.0,64,0.00,,,0.00,,2013-01-24 12:53:00,
2013-01-24 07:03:00,6.0,-4.0,30.58,North,350,4.0,7.0,64,0.00,,,0.00,,2013-01-24 13:03:00,
2013-01-24 07:13:00,6.0,-4.0,30.58,North,350,4.0,7.0,64,0.00,,,0.00,,2013-01-24 13:13:00,
2013-01-24 07:23:00,6.0,-3.0,30.59,North,355,2.0,8.0,65,0.00,,,0.00,,2013-01-24 13:23:00,
2013-01-24 07:33:00,6.0,-3.0,30.60,NNE,23,2.0,6.0,65,0.00,,,0.00,,2013-01-24 13:33:00,
2013-01-24 07:42:00,6.0,-3.0,30.60,NNE,23,2.0,6.0,65,0.00,,,0.00,,2013-01-24 13:42:00,
2013-01-24 07:53:00,6.0,-3.0,30.60,NNW,342,2.0,6.0,66,0.00,,,0.00,,2013-01-24 13:53:00,
2013-01-24 08:03:00,6.0,-3.0,30.60,North,9,2.0,7.0,65,0.00,,,0.00,,2013-01-24 14:03:00,
2013-01-24 08:12:00,6.0,-3.0,30.60,North,9,2.0,7.0,65,0.00,,,0.00,,2013-01-24 14:12:00,
2013-01-24 08:23:00,7.0,-2.0,30.60,North,5,2.0,6.0,65,0.00,,,0.00,,2013-01-24 14:23:00,
2013-01-24 08:33:00,7.0,-3.0,30.61,NNE,19,3.0,8.0,64,0.00,,,0.00,,2013-01-24 14:33:00,
2013-01-24 08:43:00,7.0,-3.0,30.61,NNE,19,3.0,8.0,64,0.00,,,0.00,,2013-01-24 14:43:00,
2013-01-24 08:53:00,8.0,-2.0,30.63,NNE,25,3.0,9.0,64,0.00,,,0.00,,2013-01-24 14:53:00,
2013-01-24 09:03:00,8.0,-2.0,30.63,North,360,4.0,10.0,63,0.00,,,0.00,,2013-01-24 15:03:00,
2013-01-24 09:12:00,8.0,-2.0,30.63,North,360,4.0,10.0,63,0.00,,,0.00,,2013-01-24 15:12:00,
2013-01-24 09:23:00,9.0,-1.0,30.64,North,355,3.0,9.0,62,0.00,,,0.00,,2013-01-24 15:23:00,
2013-01-24 09:33:00,9.0,-1.0,30.64,North,355,3.0,9.0,62,0.00,,,0.00,,2013-01-24 15:33:00,
2013-01-24 09:43:00,9.0,-1.0,30.64,North,355,3.0,9.0,62,0.00,,,0.00,,2013-01-24 15:43:00,
2013-01-24 09:53:00,10.0,0.0,30.65,NNE,24,2.0,9.0,62,0.00,,,0.00,,2013-01-24 15:53:00,
2013-01-24 10:03:00,11.0,0.0,30.65,WNW,297,2.0,7.0,61,0.00,,,0.00,,2013-01-24 16:03:00,
2013-01-24 10:12:00,11.0,0.0,30.65,WNW,297,2.0,7.0,61,0.00,,,0.00,,2013-01-24 16:12:00,
2013-01-24 10:23:00,12.0,1.0,30.65,NNE,29,2.0,7.0,60,0.00,,,0.00,,2013-01-24 16:23:00,
2013-01-24 10:33:00,13.0,1.0,30.65,North,11,3.0,6.0,59,0.00,,,0.00,,2013-01-24 16:33:00,
2013-01-24 10:42:00,13.0,1.0,30.65,North,11,3.0,6.0,59,0.00,,,0.00,,2013-01-24 16:42:00,
2013-01-24 11:02:00,14.0,2.0,30.64,NNE,26,2.0,6.0,58,0.00,,,0.00,,2013-01-24 17:02:00,
2013-01-24 11:12:00,14.0,2.0,30.64,NNE,26,2.0,6.0,58,0.00,,,0.00,,2013-01-24 17:12:00,
2013-01-24 11:22:00,14.0,2.0,30.64,NNE,26,2.0,6.0,58,0.00,,,0.00,,2013-01-24 17:22:00,
2013-01-24 11:32:00,16.0,3.0,30.65,NE,44,4.0,10.0,56,0.00,,,0.00,,2013-01-24 17:32:00,
2013-01-24 11:42:00,16.0,3.0,30.65,NE,44,4.0,10.0,56,0.00,,,0.00,,2013-01-24 17:42:00,
2013-01-24 11:52:00,17.0,3.0,30.65,East,101,2.0,12.0,54,0.00,,,0.00,,2013-01-24 17:52:00,
2013-01-24 12:02:00,18.0,4.0,30.63,NE,49,5.0,11.0,53,0.00,,,0.00,,2013-01-24 18:02:00,
2013-01-24 12:12:00,18.0,4.0,30.62,ESE,116,6.0,11.0,53,0.00,,,0.00,,2013-01-24 18:12:00,
2013-01-24 12:22:00,18.0,4.0,30.62,ESE,116,6.0,11.0,53,0.00,,,0.00,,2013-01-24 18:22:00,
2013-01-24 12:33:00,19.0,5.0,30.60,East,82,5.0,9.0,53,0.00,,,0.00,,2013-01-24 18:33:00,
2013-01-24 12:42:00,19.0,5.0,30.60,East,82,5.0,9.0,53,0.00,,,0.00,,2013-01-24 18:42:00,
2013-01-24 12:52:00,19.0,5.0,30.60,ENE,78,4.0,10.0,54,0.00,,,0.00,,2013-01-24 18:52:00,
2013-01-24 13:02:00,19.0,5.0,30.60,East,93,6.0,9.0,54,0.00,,,0.00,,2013-01-24 19:02:00,
2013-01-24 13:12:00,19.0,5.0,30.60,East,93,6.0,9.0,54,0.00,,,0.00,,2013-01-24 19:12:00,
2013-01-24 13:22:00,20.0,6.0,30.59,East,82,5.0,10.0,54,0.00,,,0.00,,2013-01-24 19:22:00,
2013-01-24 13:33:00,20.0,6.0,30.58,ENE,67,4.0,8.0,54,0.00,,,0.00,,2013-01-24 19:33:00,
2013-01-24 13:42:00,20.0,6.0,30.58,ENE,67,4.0,8.0,54,0.00,,,0.00,,2013-01-24 19:42:00,
2013-01-24 13:52:00,21.0,7.0,30.58,East,99,5.0,8.0,54,0.00,,,0.00,,2013-01-24 19:52:00,
2013-01-24 14:02:00,21.0,7.0,30.57,ENE,63,3.0,8.0,54,0.00,,,0.00,,2013-01-24 20:02:00,
2013-01-24 14:11:00,21.0,7.0,30.57,ENE,63,3.0,8.0,54,0.00,,,0.00,,2013-01-24 20:11:00,
2013-01-24 14:22:00,22.0,7.0,30.56,ESE,115,6.0,13.0,51,0.00,,,0.00,,2013-01-24 20:22:00,
2013-01-24 14:32:00,22.0,7.0,30.55,East,85,6.0,8.0,52,0.00,,,0.00,,2013-01-24 20:32:00,
2013-01-24 14:42:00,22.0,7.0,30.55,East,85,6.0,8.0,52,0.00,,,0.00,,2013-01-24 20:42:00,
2013-01-24 14:52:00,23.0,8.0,30.55,East,99,5.0,9.0,52,0.00,,,0.00,,2013-01-24 20:52:00,
2013-01-24 15:02:00,23.0,7.0,30.55,ESE,105,6.0,10.0,49,0.00,,,0.00,,2013-01-24 21:02:00,
2013-01-24 15:12:00,23.0,7.0,30.55,ESE,105,6.0,10.0,49,0.00,,,0.00,,2013-01-24 21:12:00,
2013-01-24 15:22:00,23.0,7.0,30.54,ESE,109,5.0,12.0,49,0.00,,,0.00,,2013-01-24 21:22:00,
2013-01-24 15:33:00,23.0,7.0,30.54,ESE,109,5.0,12.0,49,0.00,,,0.00,,2013-01-24 21:33:00,
2013-01-24 15:43:00,23.0,7.0,30.54,ESE,109,5.0,12.0,49,0.00,,,0.00,,2013-01-24 21:43:00,
2013-01-24 15:52:00,22.0,4.0,30.53,SE,146,6.0,10.0,46,0.00,,,0.00,,2013-01-24 21:52:00,
2013-01-24 16:03:00,22.0,5.0,30.53,ESE,111,7.0,10.0,47,0.00,,,0.00,,2013-01-24 22:03:00,
2013-01-24 16:12:00,22.0,5.0,30.53,ESE,111,7.0,10.0,47,0.00,,,0.00,,2013-01-24 22:12:00,
2013-01-24 16:22:00,22.0,5.0,30.52,ESE,108,8.0,12.0,47,0.00,,,0.00,,2013-01-24 22:22:00,
2013-01-24 16:32:00,22.0,6.0,30.50,ESE,111,8.0,12.0,49,0.00,,,0.00,,2013-01-24 22:32:00,
2013-01-24 16:42:00,22.0,6.0,30.50,ESE,111,8.0,12.0,49,0.00,,,0.00,,2013-01-24 22:42:00,
2013-01-24 16:52:00,22.0,6.0,30.51,ESE,119,7.0,11.0,49,0.00,,,0.00,,2013-01-24 22:52:00,
2013-01-24 17:02:00,21.0,6.0,30.51,SE,142,6.0,11.0,51,0.00,,,0.00,,2013-01-24 23:02:00,
2013-01-24 17:12:00,21.0,6.0,30.51,SE,142,6.0,11.0,51,0.00,,,0.00,,2013-01-24 23:12:00,
2013-01-24 17:22:00,21.0,7.0,30.50,ESE,115,4.0,10.0,53,0.00,,,0.00,,2013-01-24 23:22:00,
2013-01-24 17:32:00,21.0,7.0,30.50,ESE,103,6.0,9.0,54,0.00,,,0.00,,2013-01-24 23:32:00,
2013-01-24 17:42:00,21.0,7.0,30.50,ESE,103,6.0,9.0,54,0.00,,,0.00,,2013-01-24 23:42:00,
2013-01-24 17:52:00,21.0,7.0,30.49,ESE,111,5.0,11.0,55,0.00,,,0.00,,2013-01-24 23:52:00,
2013-01-24 18:02:00,21.0,8.0,30.48,East,94,5.0,10.0,56,0.00,,,0.00,,2013-01-25 00:02:00,
2013-01-24 18:12:00,21.0,8.0,30.48,East,94,5.0,10.0,56,0.00,,,0.00,,2013-01-25 00:12:00,
2013-01-24 18:22:00,21.0,8.0,30.48,East,94,5.0,10.0,56,0.00,,,0.00,,2013-01-25 00:22:00,
2013-01-24 18:32:00,21.0,8.0,30.49,ESE,113,6.0,9.0,57,0.00,,,0.00,,2013-01-25 00:32:00,
2013-01-24 18:42:00,21.0,8.0,30.49,ESE,113,6.0,9.0,57,0.00,,,0.00,,2013-01-25 00:42:00,
2013-01-24 18:53:00,21.0,9.0,30.47,East,101,5.0,10.0,58,0.00,,,0.00,,2013-01-25 00:53:00,
2013-01-24 19:02:00,21.0,9.0,30.47,ESE,113,5.0,10.0,58,0.00,,,0.00,,2013-01-25 01:02:00,
2013-01-24 19:12:00,21.0,9.0,30.47,ESE,113,5.0,10.0,58,0.00,,,0.00,,2013-01-25 01:12:00,
2013-01-24 19:22:00,21.0,8.0,30.46,East,100,7.0,10.0,57,0.00,,,0.00,,2013-01-25 01:22:00,
2013-01-24 19:32:00,20.0,6.0,30.45,SE,128,7.0,10.0,55,0.00,,,0.00,,2013-01-25 01:32:00,
2013-01-24 19:42:00,20.0,6.0,30.45,SE,128,7.0,10.0,55,0.00,,,0.00,,2013-01-25 01:42:00,
2013-01-24 19:52:00,20.0,6.0,30.45,ESE,113,6.0,11.0,55,0.00,,,0.00,,2013-01-25 01:52:00,
2013-01-24 20:02:00,20.0,7.0,30.45,SE,128,5.0,10.0,56,0.00,,,0.00,,2013-01-25 02:02:00,
2013-01-24 20:11:00,20.0,7.0,30.45,SE,128,5.0,10.0,56,0.00,,,0.00,,2013-01-25 02:11:00,
2013-01-24 20:22:00,20.0,7.0,30.44,ESE,109,5.0,10.0,57,0.00,,,0.00,,2013-01-25 02:22:00,
2013-01-24 20:32:00,20.0,7.0,30.43,SE,130,6.0,9.0,57,0.00,,,0.00,,2013-01-25 02:32:00,
2013-01-24 20:42:00,20.0,7.0,30.43,SE,130,6.0,9.0,57,0.00,,,0.00,,2013-01-25 02:42:00,
2013-01-24 20:53:00,20.0,7.0,30.43,SE,134,7.0,10.0,57,0.00,,,0.00,,2013-01-25 02:53:00,
2013-01-24 21:02:00,20.0,7.0,30.42,ESE,123,5.0,10.0,57,0.00,,,0.00,,2013-01-25 03:02:00,
2013-01-24 21:12:00,20.0,7.0,30.42,SE,125,5.0,8.0,57,0.00,,,0.00,,2013-01-25 03:12:00,
2013-01-24 21:22:00,20.0,7.0,30.42,SE,125,5.0,8.0,57,0.00,,,0.00,,2013-01-25 03:22:00,
2013-01-24 21:33:00,20.0,7.0,30.41,SE,128,6.0,9.0,57,0.00,,,0.00,,2013-01-25 03:33:00,
2013-01-24 21:42:00,20.0,7.0,30.41,SE,128,6.0,9.0,57,0.00,,,0.00,,2013-01-25 03:42:00,
2013-01-24 21:52:00,20.0,7.0,30.40,ESE,113,6.0,10.0,57,0.00,,,0.00,,2013-01-25 03:52:00,
2013-01-24 22:02:00,20.0,7.0,30.40,ESE,113,7.0,11.0,57,0.00,,,0.00,,2013-01-25 04:02:00,
2013-01-24 22:12:00,20.0,7.0,30.40,ESE,113,7.0,11.0,57,0.00,,,0.00,,2013-01-25 04:12:00,
2013-01-24 22:22:00,20.0,7.0,30.40,ESE,110,8.0,11.0,56,0.00,,,0.00,,2013-01-25 04:22:00,
2013-01-24 22:32:00,20.0,8.0,30.40,ESE,103,6.0,11.0,58,0.00,,,0.00,,2013-01-25 04:32:00,
2013-01-24 22:41:00,20.0,8.0,30.40,ESE,103,6.0,11.0,58,0.00,,,0.00,,2013-01-25 04:41:00,
2013-01-24 22:52:00,20.0,8.0,30.40,ESE,123,5.0,7.0,59,0.00,,,0.00,,2013-01-25 04:52:00,
2013-01-24 23:03:00,20.0,8.0,30.40,ESE,123,5.0,8.0,58,0.00,,,0.00,,2013-01-25 05:03:00,
2013-01-24 23:12:00,20.0,8.0,30.40,ESE,123,5.0,8.0,58,0.00,,,0.00,,2013-01-25 05:12:00,
2013-01-24 23:22:00,20.0,8.0,30.40,SE,128,4.0,8.0,58,0.00,,,0.00,,2013-01-25 05:22:00,
2013-01-24 23:32:00,20.0,8.0,30.39,SE,141,4.0,8.0,58,0.00,,,0.00,,2013-01-25 05:32:00,
2013-01-24 23:43:00,20.0,8.0,30.39,SE,141,4.0,8.0,58,0.00,,,0.00,,2013-01-25 05:43:00,
2013-01-24 23:52:00,20.0,7.0,30.39,ESE,119,6.0,9.0,57,0.00,,,0.00,,2013-01-25 05:52:00,